Skip Navigation Links
NOAA logo - Click to go to the NOAA homepage
NOAA's National Weather Service
Alaska Aviation Weather Unit
  NWS logo - Click to go to the NWS homepage
Left Navbar Graphic     08 AKDT = 16 GMT

   
NOAA is celebrating 200 years of science, service, and stewardship. Visit the NOAA 200th celebration Web site to learn more.
USA.gov is the U.S. Government's official Web portal to all Federal, state and local government Web resources and services.
Facebook
NWS on Facebook

Important Change Regarding the AAWU Web Presence

 

Over the last several months, the AAWU has been working to navigate its webpages to a nationally supported server. Security, as well as other needs, have necessitated the change.  In the process, we have made an effort to enhance the functionality of our website, as well as some of our products. As of June 20, 2017, aawu.arh.noaa.gov will be discontinued. The new AAWU web address is weather.gov/aawu. It is now live and will run in-parallel with the old site until it is discontinued. Please send any feedback or questions regarding the new webpages to nws.ar.aawu.webauthors@noaa.gov.  Thank you for your patience during this time of transition.
AAWU Home :: Display TAF Add Bookmark
TAF PAGK 291120Z 2912/3012 VRB05KT P6SM VCSH BKN060
     FM291800 16010G18KT P6SM SCT060 BKN100
     FM292200 17015G25KT P6SM SCT080 SCT120
     FM300700 19007KT P6SM SCT150=

METAR PAGK 291053Z AUTO 06004KT 10SM OVC100 08/01 A2983 RMK AO2 SLP109 T00830011 TSNO $= METAR PAGK 291153Z AUTO 00000KT 10SM OVC090 07/02 A2983 RMK AO2 SLP109 T00670017 10100 20061 58004 TSNO $= METAR PAGK 291253Z AUTO 08004KT 10SM OVC095 08/02 A2982 RMK AO2 SLP105 T00780022 TSNO $= METAR PAGK 291353Z AUTO 10004KT 10SM OVC100 08/02 A2981 RMK AO2 SLP102 T00830017 TSNO $= METAR PAGK 291453Z AUTO 18003KT 10SM OVC090 08/02 A2980 RMK AO2 SLP099 T00780022 56009 TSNO $= METAR PAGK 291553Z AUTO 00000KT 10SM OVC100 07/03 A2980 RMK AO2 SLP100 T00720028 TSNO $=
 Alaska TAF Map

NOAA's National Weather Service
Alaska Aviation Weather Unit
6930 Sand Lake Road
Anchorage, AK 99502-1845
Disclaimer
Credits
Glossary
Privacy Policy
About Us
Career Opportunities
Contact AAWU Internet Services Site last modified: April, 17th 2012